Flag for Myanmar Weather past 2 weeks in Yangon, Myanmar

Now
97 °F

Clear.


Feels Like: 97 °F
Forecast: 72 / 96 °F
Wind: 5 mph from West

Location: Rangoon Airport

Current Time: Mar 4, 2015 at 5:55:16 PM

Latest Report: Mar 4, 2015 at 5:00 PM


Visibility: 5 mi

Pressure: N/A

Humidity: 30%

Dew point: 61 °F

Location of YangonLocation

Historic Weather in Yangon — Graph

°F

Yangon temperature yesterday

Maximum temperature yesterday: 99 °F (at 2:00 PM)
Minimum temperature yesterday: 73 °F (at 6:00 AM)
Average temperature yesterday: 87 °F

Past Weeks' High & Low Weather Summary

 TemperatureHumidityPressure
High100 °F (Mar 1, 4:30 PM)100% (Feb 20, 7:00 AM)29.98 "Hg (Feb 20, 7:00 AM)
Low66 °F (Feb 19, 6:00 AM)17% (Feb 20, 2:30 PM)29.74 "Hg (Mar 3, 3:00 PM)
Average83 °F55%29.87 "Hg
* Reported Feb 17 4:30 PM — Mar 4 4:30 PM, Yangon, Weather by CustomWeather, © 2015

Note: Actual official high and low records may vary slightly from our data, if they occured in-between our weather recording intervals... More about our weather records

Advertising

Yangon weather history for previous 24 hours

 ConditionsComfort  
Time TempWeatherWind HumidityBarometerVisibility
4:30 PM
Wed, Mar 4
97 °FClear.5 mph30%N/A5 mi
4:00 PM97 °FClear.5 mph37%N/A5 mi
3:30 PM97 °FClear.5 mph37%N/A5 mi
3:00 PM97 °FClear.5 mph37%N/A5 mi
2:30 PM97 °FClear.5 mph37%N/A5 mi
2:00 PM97 °FClear.5 mph30%N/A5 mi
1:00 PM95 °FClear.5 mph39%N/A5 mi
12:30 PM93 °FClear.5 mph39%N/A5 mi
12:00 PM93 °FClear.5 mph47%N/A5 mi
11:30 AM91 °FClear.5 mph49%N/A4 mi
11:00 AM90 °FClear.5 mph55%N/A4 mi
10:30 AM88 °FClear.5 mph62%N/A4 mi
10:00 AM84 °FClear.5 mph66%N/A4 mi
9:30 AM79 °FClear.3 mph79%29.89 "Hg4 mi
9:00 AM79 °FClear.3 mph79%29.89 "Hg4 mi
8:30 AM75 °FClear.3 mph83%29.86 "Hg4 mi
8:00 AM75 °FClear.3 mph83%29.86 "Hg4 mi
7:30 AM73 °FClear.2 mph74%29.86 "Hg4 mi
7:00 AM73 °FClear.2 mph74%29.83 "Hg4 mi
6:30 AM72 °FFog.2 mph53%29.83 "Hg3 mi
6:00 AM72 °FFog.3 mph94%29.80 "Hg3 mi
5:30 AM73 °FFog.2 mph89%29.77 "Hg3 mi
5:00 AM73 °FFog.2 mph89%29.77 "Hg3 mi
4:30 AM73 °FFog.2 mph89%29.77 "Hg3 mi
4:00 AM73 °FClear.3 mph89%29.77 "Hg4 mi
11:30 PM
Tue, Mar 3
81 °FClear.9 mph54%29.80 "Hg4 mi
11:00 PM81 °FClear.6 mph54%29.83 "Hg4 mi
10:30 PM81 °FClear.7 mph54%29.83 "Hg4 mi
10:00 PM82 °FClear.7 mph45%29.83 "Hg4 mi
9:30 PM82 °FClear.8 mph45%29.83 "Hg4 mi
9:00 PM82 °FClear.10 mph48%29.80 "Hg4 mi
8:30 PM86 °FClear.5 mph46%29.80 "Hg4 mi
8:00 PM86 °FClear.8 mph46%29.80 "Hg4 mi
7:00 PM90 °FClear.8 mph38%29.77 "Hg4 mi
6:30 PM91 °FClear.6 mph44%29.74 "Hg4 mi
6:00 PM95 °FClear.6 mph39%29.74 "Hg5 mi
5:30 PM97 °FClear.7 mph34%29.74 "Hg6 mi
5:00 PM97 °FClear.6 mph34%29.74 "Hg5 mi
Weather by CustomWeather, © 2015

See weather overviewHow to use our weather pages